| time (UTC) | temp C | wind direction | speed KPH | gust KPH | rain 1hr cm | rain 24hr cm | rain mn cm | humidity % | barometer mb |
| 20260504174503 | 18 | 189 | 11.3 | 22.5 | 0.00 | 0.00 | 0.00 | 48 | 1009.4 |
| 20260504174003 | 18 | 193 | 11.3 | 22.5 | 0.00 | 0.00 | 0.00 | 47 | 1009.5 |
| 20260504173504 | 18 | 162 | 9.7 | 22.5 | 0.00 | 0.00 | 0.00 | 48 | 1009.5 |
| 20260504173008 | 18 | 269 | 6.4 | 27.4 | 0.00 | 0.00 | 0.00 | 48 | 1009.6 |
| 20260504172503 | 17 | 257 | 17.7 | 27.4 | 0.00 | 0.00 | 0.00 | 47 | 1009.7 |
| 20260504172006 | 17 | 217 | 8.0 | 27.4 | 0.00 | 0.00 | 0.00 | 49 | 1009.8 |
| 20260504171513 | 17 | 229 | 11.3 | 27.4 | 0.00 | 0.00 | 0.00 | 47 | 1009.8 |
| 20260504171010 | 17 | 184 | 11.3 | 27.4 | 0.00 | 0.00 | 0.00 | 50 | 1009.7 |
| 20260504170504 | 17 | 168 | 11.3 | 27.4 | 0.00 | 0.00 | 0.00 | 47 | 1009.8 |
| 20260504151006 | 15 | 179 | 6.4 | 25.7 | 0.00 | 0.00 | 0.00 | 50 | 1010.9 |
| 20260504150504 | 14 | 213 | 8.0 | 25.7 | 0.00 | 0.00 | 0.00 | 51 | 1010.9 |
| 20260504141003 | 13 | 196 | 6.4 | 25.7 | 0.00 | 0.00 | 0.00 | 54 | 1011.3 |
| 20260504140503 | 13 | 224 | 11.3 | 25.7 | 0.00 | 0.00 | 0.00 | 52 | 1011.3 |
| 20260504130503 | 11 | 221 | 8.0 | 17.7 | 0.00 | 0.00 | 0.00 | 54 | 1011.2 |
| 20260504110507 | 8 | 176 | 6.4 | 14.5 | 0.00 | 0.00 | 0.00 | 58 | 1011.3 |
| 20260504100511 | 7 | 175 | 8.0 | 14.5 | 0.00 | 0.00 | 0.00 | 60 | 1011.4 |
| 20260504082003 | 7 | 155 | 6.4 | 9.7 | 0.00 | 0.00 | 0.00 | 58 | 1012.2 |
| 20260504081506 | 7 | 167 | 6.4 | 11.3 | 0.00 | 0.00 | 0.00 | 58 | 1012.2 |
| 20260504081004 | 7 | 165 | 6.4 | 11.3 | 0.00 | 0.00 | 0.00 | 57 | 1012.3 |
| 20260504080504 | 7 | 202 | 6.4 | 9.7 | 0.00 | 0.00 | 0.00 | 57 | 1012.3 |
| 20260504044509 | 8 | 201 | 6.4 | 14.5 | 0.00 | 0.00 | 0.00 | 51 | 1013.2 |
| 20260504044004 | 8 | 215 | 6.4 | 14.5 | 0.00 | 0.00 | 0.00 | 51 | 1013.1 |
| 20260504043506 | 8 | 210 | 4.8 | 16.1 | 0.00 | 0.00 | 0.00 | 51 | 1013.1 |
| 20260504043012 | 8 | 233 | 8.0 | 17.7 | 0.00 | 0.00 | 0.00 | 51 | 1013.2 |
| 20260504042503 | 8 | 240 | 9.7 | 17.7 | 0.00 | 0.00 | 0.00 | 51 | 1013.1 |
| 20260504042007 | 8 | 264 | 9.7 | 17.7 | 0.00 | 0.00 | 0.00 | 51 | 1013.2 |
| 20260504041514 | 8 | 256 | 8.0 | 17.7 | 0.00 | 0.00 | 0.00 | 51 | 1013.3 |
| 20260504041005 | 8 | 211 | 6.4 | 12.9 | 0.00 | 0.00 | 0.00 | 52 | 1013.3 |
| 20260504040506 | 8 | 172 | 8.0 | 14.5 | 0.00 | 0.00 | 0.00 | 52 | 1013.3 |
| 20260504040021 | 8 | 240 | 6.4 | 14.5 | 0.00 | 0.00 | 0.00 | 52 | 1013.4 |
| 20260504035506 | 8 | 231 | 8.0 | 14.5 | 0.00 | 0.00 | 0.00 | 52 | 1013.3 |
| 20260504035003 | 8 | 200 | 6.4 | 11.3 | 0.00 | 0.00 | 0.00 | 52 | 1013.4 |
| 20260504034503 | 8 | 161 | 4.8 | 12.9 | 0.00 | 0.00 | 0.00 | 51 | 1013.5 |
| 20260504034003 | 8 | 199 | 4.8 | 16.1 | 0.00 | 0.00 | 0.00 | 51 | 1013.5 |
| 20260504033506 | 8 | 210 | 6.4 | 17.7 | 0.00 | 0.00 | 0.00 | 51 | 1013.5 |
| 20260504033007 | 8 | 219 | 8.0 | 17.7 | 0.00 | 0.00 | 0.00 | 51 | 1013.4 |
| 20260504032504 | 8 | 219 | 9.7 | 17.7 | 0.00 | 0.00 | 0.00 | 50 | 1013.4 |
| 20260504032004 | 9 | 221 | 9.7 | 16.1 | 0.00 | 0.00 | 0.00 | 50 | 1013.4 |
| 20260504031514 | 9 | 221 | 8.0 | 19.3 | 0.00 | 0.00 | 0.00 | 50 | 1013.3 |
| 20260504031008 | 9 | 215 | 8.0 | 19.3 | 0.00 | 0.00 | 0.00 | 49 | 1013.3 |
| 20260504030508 | 9 | 238 | 9.7 | 16.1 | 0.00 | 0.00 | 0.00 | 50 | 1013.3 |
| 20260504030014 | 9 | 264 | 9.7 | 16.1 | 0.00 | 0.00 | 0.00 | 49 | 1013.4 |
| 20260504025510 | 9 | 227 | 9.7 | 16.1 | 0.00 | 0.00 | 0.00 | 49 | 1013.4 |
| 20260504025006 | 9 | 200 | 8.0 | 22.5 | 0.00 | 0.00 | 0.00 | 49 | 1013.4 |
| 20260504024519 | 9 | 188 | 6.4 | 22.5 | 0.00 | 0.00 | 0.00 | 49 | 1013.5 |
| 20260504024008 | 9 | 240 | 9.7 | 20.9 | 0.00 | 0.00 | 0.00 | 49 | 1013.5 |
| 20260504023503 | 9 | 201 | 9.7 | 20.9 | 0.00 | 0.00 | 0.00 | 49 | 1013.5 |
| 20260504023004 | 9 | 243 | 9.7 | 19.3 | 0.00 | 0.00 | 0.00 | 49 | 1013.6 |
| 20260504022503 | 9 | 221 | 9.7 | 20.9 | 0.00 | 0.00 | 0.00 | 49 | 1013.5 |
| 20260504022004 | 9 | 258 | 8.0 | 20.9 | 0.00 | 0.00 | 0.00 | 49 | 1013.6 |
| 20260504021505 | 9 | 274 | 8.0 | 17.7 | 0.00 | 0.00 | 0.00 | 49 | 1013.6 |
| 20260504021003 | 9 | 238 | 8.0 | 20.9 | 0.00 | 0.00 | 0.00 | 48 | 1013.6 |
| 20260504020503 | 9 | 255 | 8.0 | 20.9 | 0.00 | 0.00 | 0.00 | 48 | 1013.6 |
| 20260504020010 | 9 | 247 | 6.4 | 24.1 | 0.00 | 0.00 | 0.00 | 48 | 1013.5 |
| 20260504015507 | 10 | 240 | 8.0 | 24.1 | 0.00 | 0.00 | 0.00 | 48 | 1013.6 |
| 20260504015004 | 10 | 255 | 8.0 | 16.1 | 0.00 | 0.00 | 0.00 | 47 | 1013.6 |
| 20260504014518 | 10 | 238 | 8.0 | 17.7 | 0.00 | 0.00 | 0.00 | 47 | 1013.6 |
| 20260504014007 | 10 | 245 | 9.7 | 17.7 | 0.00 | 0.00 | 0.00 | 47 | 1013.5 |
| 20260504013507 | 10 | 251 | 9.7 | 17.7 | 0.00 | 0.00 | 0.00 | 47 | 1013.4 |
| 20260504013022 | 10 | 263 | 9.7 | 17.7 | 0.00 | 0.00 | 0.00 | 47 | 1013.3 |
| 20260504012507 | 10 | 227 | 8.0 | 20.9 | 0.00 | 0.00 | 0.00 | 47 | 1013.3 |
| 20260504012008 | 10 | 253 | 11.3 | 20.9 | 0.00 | 0.00 | 0.00 | 46 | 1013.3 |
| 20260504011504 | 10 | 297 | 6.4 | 20.9 | 0.00 | 0.00 | 0.00 | 46 | 1013.2 |
| 20260504011003 | 10 | 220 | 9.7 | 20.9 | 0.00 | 0.00 | 0.00 | 46 | 1013.2 |
| 20260504010502 | 10 | 214 | 12.9 | 20.9 | 0.00 | 0.00 | 0.00 | 46 | 1013.3 |
| 20260504010007 | 10 | 225 | 11.3 | 20.9 | 0.00 | 0.00 | 0.00 | 46 | 1013.3 |
| 20260504005504 | 10 | 250 | 6.4 | 19.3 | 0.00 | 0.00 | 0.00 | 46 | 1013.3 |
| 20260504005004 | 10 | 254 | 9.7 | 22.5 | 0.00 | 0.00 | 0.00 | 46 | 1013.2 |
| 20260504004517 | 10 | 241 | 11.3 | 22.5 | 0.00 | 0.00 | 0.00 | 46 | 1013.2 |
| 20260504004004 | 10 | 246 | 9.7 | 19.3 | 0.00 | 0.00 | 0.00 | 46 | 1013.2 |
| 20260504003507 | 10 | 235 | 8.0 | 20.9 | 0.00 | 0.00 | 0.00 | 45 | 1013.2 |
| 20260504003018 | 10 | 197 | 11.3 | 20.9 | 0.00 | 0.00 | 0.00 | 45 | 1013.2 |
| 20260504002506 | 10 | 243 | 9.7 | 20.9 | 0.00 | 0.00 | 0.00 | 45 | 1013.2 |
| 20260504002009 | 11 | 245 | 12.9 | 20.9 | 0.00 | 0.00 | 0.00 | 44 | 1013.3 |
| 20260504001520 | 11 | 253 | 9.7 | 20.9 | 0.00 | 0.00 | 0.00 | 44 | 1013.3 |
| 20260504001007 | 11 | 234 | 12.9 | 24.1 | 0.00 | 0.00 | 0.00 | 44 | 1013.2 |
| 20260504000508 | 11 | 278 | 8.0 | 24.1 | 0.00 | 0.00 | 0.00 | 44 | 1013.1 |
| 20260504000008 | 11 | 213 | 9.7 | 19.3 | 0.00 | 0.00 | 0.00 | 43 | 1013.2 |
| 20260503235503 | 11 | 274 | 9.7 | 24.1 | 0.00 | 0.00 | 0.00 | 43 | 1013.3 |
| 20260503235002 | 11 | 282 | 11.3 | 29.0 | 0.00 | 0.00 | 0.00 | 42 | 1013.3 |
| 20260503234503 | 11 | 244 | 11.3 | 29.0 | 0.00 | 0.00 | 0.00 | 42 | 1013.2 |
| 20260503234001 | 11 | 238 | 16.1 | 25.7 | 0.00 | 0.00 | 0.00 | 41 | 1013.2 |
| 20260503233502 | 11 | 260 | 8.0 | 22.5 | 0.00 | 0.00 | 0.00 | 42 | 1013.2 |
| 20260503233003 | 12 | 247 | 11.3 | 22.5 | 0.00 | 0.00 | 0.00 | 41 | 1013.2 |
| 20260503232503 | 12 | 258 | 12.9 | 22.5 | 0.00 | 0.00 | 0.00 | 41 | 1013.3 |
| 20260503232002 | 12 | 268 | 8.0 | 30.6 | 0.00 | 0.00 | 0.00 | 41 | 1013.2 |
| 20260503231503 | 12 | 274 | 12.9 | 30.6 | 0.00 | 0.00 | 0.00 | 41 | 1013.3 |
| 20260503231004 | 12 | 239 | 11.3 | 30.6 | 0.00 | 0.00 | 0.00 | 40 | 1013.3 |
| 20260503230503 | 12 | 263 | 16.1 | 37.0 | 0.00 | 0.00 | 0.00 | 40 | 1013.2 |
| 20260503230004 | 12 | 264 | 19.3 | 37.0 | 0.00 | 0.00 | 0.00 | 39 | 1013.4 |
| 20260503225504 | 12 | 256 | 16.1 | 30.6 | 0.00 | 0.00 | 0.00 | 39 | 1013.3 |
| 20260503225004 | 12 | 251 | 8.0 | 27.4 | 0.00 | 0.00 | 0.00 | 40 | 1013.2 |
| 20260503224504 | 12 | 240 | 16.1 | 32.2 | 0.00 | 0.00 | 0.00 | 39 | 1013.3 |
| 20260503224003 | 12 | 241 | 17.7 | 37.0 | 0.00 | 0.00 | 0.00 | 39 | 1013.3 |
| 20260503223503 | 12 | 262 | 25.7 | 37.0 | 0.00 | 0.00 | 0.00 | 38 | 1013.2 |
| 20260503223004 | 12 | 255 | 16.1 | 29.0 | 0.00 | 0.00 | 0.00 | 38 | 1013.0 |
| 20260503222503 | 12 | 278 | 16.1 | 30.6 | 0.00 | 0.00 | 0.00 | 39 | 1013.0 |
| 20260503222003 | 12 | 271 | 19.3 | 30.6 | 0.00 | 0.00 | 0.00 | 40 | 1013.0 |
| 20260503221502 | 12 | 274 | 9.7 | 27.4 | 0.00 | 0.00 | 0.00 | 40 | 1013.1 |
| 20260503221002 | 12 | 218 | 16.1 | 27.4 | 0.00 | 0.00 | 0.00 | 39 | 1013.1 |
| 20260503220504 | 12 | 262 | 6.4 | 25.7 | 0.00 | 0.00 | 0.00 | 41 | 1013.1 |
| 20260503220004 | 11 | 281 | 14.5 | 27.4 | 0.00 | 0.00 | 0.00 | 39 | 1013.2 |
| 20260503215504 | 11 | 270 | 11.3 | 30.6 | 0.00 | 0.00 | 0.00 | 40 | 1013.1 |
| 20260503215003 | 12 | 287 | 12.9 | 30.6 | 0.00 | 0.00 | 0.00 | 39 | 1013.0 |
| 20260503214513 | 11 | 272 | 17.7 | 33.8 | 0.00 | 0.00 | 0.00 | 39 | 1013.0 |
| 20260503214006 | 11 | 231 | 19.3 | 33.8 | 0.00 | 0.00 | 0.00 | 39 | 1013.0 |
| 20260503213503 | 11 | 256 | 8.0 | 30.6 | 0.00 | 0.00 | 0.00 | 41 | 1013.0 |
| 20260503213003 | 12 | 259 | 17.7 | 30.6 | 0.00 | 0.00 | 0.00 | 39 | 1013.0 |
| 20260503212503 | 12 | 277 | 11.3 | 29.0 | 0.00 | 0.00 | 0.00 | 40 | 1013.1 |
| 20260503212003 | 11 | 202 | 12.9 | 29.0 | 0.00 | 0.00 | 0.00 | 41 | 1013.2 |
| 20260503211504 | 11 | 291 | 9.7 | 27.4 | 0.00 | 0.00 | 0.00 | 42 | 1013.2 |
| 20260503211002 | 11 | 234 | 16.1 | 27.4 | 0.00 | 0.00 | 0.00 | 40 | 1013.2 |
| 20260503210502 | 11 | 266 | 11.3 | 30.6 | 0.00 | 0.00 | 0.00 | 40 | 1013.3 |
| 20260503210005 | 11 | 275 | 8.0 | 30.6 | 0.00 | 0.00 | 0.00 | 40 | 1013.2 |
| 20260503205504 | 11 | 272 | 19.3 | 30.6 | 0.00 | 0.00 | 0.00 | 39 | 1013.3 |
| 20260503205003 | 11 | 256 | 17.7 | 33.8 | 0.00 | 0.00 | 0.00 | 41 | 1013.2 |
| 20260503204505 | 11 | 281 | 19.3 | 33.8 | 0.00 | 0.00 | 0.00 | 40 | 1013.2 |
| 20260503204003 | 11 | 250 | 14.5 | 30.6 | 0.00 | 0.00 | 0.00 | 40 | 1013.2 |
| 20260503203503 | 11 | 253 | 9.7 | 25.7 | 0.00 | 0.00 | 0.00 | 41 | 1013.2 |
| 20260503203005 | 11 | 302 | 9.7 | 32.2 | 0.00 | 0.00 | 0.00 | 39 | 1013.3 |
| 20260503202503 | 11 | 300 | 14.5 | 32.2 | 0.00 | 0.00 | 0.00 | 39 | 1013.3 |
| 20260503202004 | 11 | 276 | 12.9 | 32.2 | 0.00 | 0.00 | 0.00 | 40 | 1013.4 |
| 20260503201503 | 11 | 242 | 8.0 | 32.2 | 0.00 | 0.00 | 0.00 | 39 | 1013.4 |
| 20260503201007 | 12 | 293 | 17.7 | 29.0 | 0.00 | 0.00 | 0.00 | 39 | 1013.3 |
| 20260503200503 | 11 | 257 | 11.3 | 25.7 | 0.00 | 0.00 | 0.00 | 41 | 1013.5 |
| 20260503200006 | 11 | 280 | 9.7 | 33.8 | 0.00 | 0.00 | 0.00 | 40 | 1013.6 |
| 20260503195502 | 11 | 266 | 17.7 | 33.8 | 0.00 | 0.00 | 0.00 | 40 | 1013.7 |
| 20260503195003 | 11 | 278 | 16.1 | 37.0 | 0.00 | 0.00 | 0.00 | 41 | 1013.8 |
| 20260503194505 | 11 | 256 | 19.3 | 33.8 | 0.00 | 0.00 | 0.00 | 41 | 1013.9 |
| 20260503194003 | 11 | 266 | 14.5 | 30.6 | 0.00 | 0.00 | 0.00 | 41 | 1014.0 |
| 20260503193504 | 11 | 284 | 9.7 | 33.8 | 0.00 | 0.00 | 0.00 | 43 | 1014.1 |
| 20260503193005 | 11 | 290 | 12.9 | 33.8 | 0.00 | 0.00 | 0.00 | 42 | 1014.2 |
| 20260503192504 | 11 | 248 | 16.1 | 30.6 | 0.00 | 0.00 | 0.00 | 43 | 1014.2 |
| 20260503192004 | 11 | 280 | 11.3 | 30.6 | 0.00 | 0.00 | 0.00 | 42 | 1014.2 |
| 20260503191515 | 11 | 257 | 14.5 | 27.4 | 0.00 | 0.00 | 0.00 | 41 | 1014.2 |
| 20260503191004 | 11 | 274 | 11.3 | 27.4 | 0.00 | 0.00 | 0.00 | 40 | 1014.3 |
| 20260503190502 | 11 | 231 | 9.7 | 32.2 | 0.00 | 0.00 | 0.00 | 43 | 1014.3 |
| 20260503190006 | 11 | 275 | 12.9 | 32.2 | 0.00 | 0.00 | 0.00 | 43 | 1014.5 |
| 20260503185502 | 11 | 281 | 19.3 | 32.2 | 0.00 | 0.00 | 0.00 | 41 | 1014.5 |
| 20260503185002 | 11 | 278 | 11.3 | 27.4 | 0.00 | 0.00 | 0.00 | 41 | 1014.6 |
| 20260503184507 | 11 | 280 | 8.0 | 27.4 | 0.00 | 0.00 | 0.00 | 42 | 1014.6 |
| 20260503184002 | 11 | 226 | 11.3 | 32.2 | 0.00 | 0.00 | 0.00 | 44 | 1014.7 |
| 20260503183503 | 10 | 276 | 14.5 | 35.4 | 0.00 | 0.00 | 0.00 | 43 | 1014.7 |
| 20260503183007 | 10 | 279 | 12.9 | 35.4 | 0.00 | 0.00 | 0.00 | 43 | 1014.9 |
| 20260503182503 | 10 | 288 | 9.7 | 24.1 | 0.00 | 0.00 | 0.00 | 43 | 1014.9 |
| 20260503182006 | 10 | 283 | 8.0 | 29.0 | 0.00 | 0.00 | 0.00 | 43 | 1015.0 |
| 20260503181506 | 10 | 266 | 17.7 | 29.0 | 0.00 | 0.00 | 0.00 | 43 | 1014.8 |
| 20260503181004 | 10 | 292 | 12.9 | 29.0 | 0.00 | 0.00 | 0.00 | 42 | 1014.8 |
| 20260503180504 | 10 | 274 | 16.1 | 29.0 | 0.00 | 0.00 | 0.00 | 42 | 1014.9 |
| 20260503180006 | 10 | 303 | 8.0 | 33.8 | 0.00 | 0.00 | 0.00 | 44 | 1014.9 |
| 20260503175503 | 10 | 255 | 14.5 | 33.8 | 0.00 | 0.00 | 0.00 | 42 | 1014.9 |
| 20260503175003 | 10 | 286 | 14.5 | 25.7 | 0.00 | 0.00 | 0.00 | 42 | 1014.9 |